Temp
58 59 58 57 56 55 53 52 52 52 52 52 53 53 52 53 53 53 52 53 51 52 52 54 56 56 55 55 56 56 56 56 56 56 56 55 55 55 55 55 54 53
55 54 53 52 52 53 52 52 52 51 50 50 51 51 52 52 51 51 51 51 51 51 51 52 52 54 55 55 55 55 53 54 53 54 53 52 52 54 53 54 53 54
51 51 51 50 50 50 50 50 50 49 49 49 49 50 51 49 50 48 50 48 49 50 51 50 50 51 52 52 54 52 51 52 52 53 52 52 51 52 52 53 53 53
50 50 50 50 49 49 50 49 49 49 49 49 48 49 48 49 47 47 48 46 47 48 48 48 48 49 49 48 48 48 49 50 50 51 50 50 50 50 51 51 51 51
49 49 49 49 49 49 49 49 48 48 47 47 48 47 48 47 46 45 44 44 44 44 45 46 45 45 45 46 46 47 47 48 48 49 48 48 49 49 50 48 48 49
48 48 48 48 48 48 48 47 46 46 45 45 45 46 46 44 43 42 42 42 43 43 43 43 44 44 44 44 45 44 44 45 46 45 46 47 47 48 49 48 48 48
47 47 47 48 47 47 46 46 45 44 43 43 42 43 41 41 41 41 41 41 41 41 40 41 41 42 42 43 42 42 43 42 43 45 45 45 46 46 46 46 46 46
46 46 46 46 45 44 43 43 42 43 41 41 41 41 40 40 40 41 40 41 39 39 39 39 39 40 38 39 39 39 40 43 42 42 42 43 44 44 44 45 44 44
44 44 44 43 43 43 42 42 42 41 40 39 39 39 39 40 40 41 40 38 38 38 38 38 39 38 37 38 37 36 37 39 40 39 41 41 41 42 42 43 42 42
44 43 42 42 42 41 40 39 39 39 38 38 38 39 40 40 38 38 37 37 38 36 36 36 37 36 36 37 37 36 36 38 36 37 39 40 40 41 41 41 41 41
41 41 40 40 40 39 38 37 37 37 37 38 38 39 38 37 38 36 37 37 40 38 38 37 37 37 37 36 36 35 35 37 38 37 37 38 39 39 39 40 40 40
39 39 39 38 38 38 38 38 38 37 37 37 36 37 36 36 36 36 36 36 35 36 36 37 37 36 36 37 37 36 36 37 37 37 37 38 38 38 38 38 39 39
39 38 38 38 38 38 37 36 36 35 35 36 35 34 34 35 35 35 35 35 36 36 36 36 37 36 37 37 37 36 36 36 37 36 37 37 37 37 37 37 37 38
38 37 37 37 37 36 36 35 35 34 34 34 33 34 34 34 34 35 34 34 35 35 36 36 36 36 36 36 36 36 37 36 35 36 36 36 36 36 36 37 37 38
37 37 37 36 35 35 35 34 34 33 33 33 33 33 36 34 34 34 34 34 34 34 35 36 39 40 39 37 38 37 36 36 36 36 35 35 36 36 36 37 37 37
36 35 36 34 34 33 34 33 33 33 32 32 33 33 33 33 33 33 33 34 35 35 34 37 39 39 40 41 41 39 37 37 36 35 35 35 35 36 37 37 37 38
35 35 34 34 33 32 32 32 33 33 32 33 33 33 33 33 34 33 33 33 33 33 35 37 38 39 40 43 43 43 40 36 35 35 34 34 34 35 36 37 38 38
34 33 33 33 32 32 32 32 32 32 33 32 32 32 33 32 32 32 33 33 34 32 32 35 36 39 42 42 43 43 42 39 37 36 36 36 35 36 37 37 38 39
32 32 32 32 32 32 31 31 30 30 30 31 32 31 31 32 32 33 33 33 32 32 33 34 33 38 41 42 42 42 42 41 37 36 36 36 36 36 36 37 38 38
32 31 31 31 31 31 30 29 29 30 29 29 30 30 30 31 31 31 31 32 32 32 33 33 33 37 40 41 41 42 42 41 38 37 36 36 36 36 37 37 37 37
32 31 31 31 30 29 28 29 29 28 29 30 30 30 31 31 31 31 32 31 32 32 32 33 34 39 40 41 41 42 42 41 38 36 36 36 36 36 37 37 37 38
31 30 30 28 28 28 28 28 28 29 30 29 29 29 29 29 30 28 30 31 31 31 31 32 34 38 39 40 41 41 42 38 36 35 35 35 36 36 37 38 38 37
30 29 28 27 28 27 28 29 29 28 28 28 28 29 29 29 29 29 30 30 31 31 30 31 32 35 38 39 40 41 39 35 35 34 34 35 35 36 37 37 37 37
29 27 26 27 28 28 28 26 26 26 27 30 28 28 27 28 29 29 29 28 29 30 29 30 31 34 37 39 39 40 39 35 34 34 33 34 34 35 36 36 36 35
27 26 25 26 27 26 25 25 27 28 30 29 27 24 26 27 29 28 28 28 26 29 31 31 31 33 36 38 39 39 38 34 34 33 32 32 33 33 34 35 35 35
26 26 26 25 24 27 28 28 29 28 25 24 22 24 25 25 24 26 26 28 28 28 30 30 30 31 33 37 38 39 39 36 34 32 31 31 32 32 32 32 34 34
MSLP
1020.43 1020.65 1020.87 1021.07 1021.19 1021.25 1021.33 1021.43 1021.59 1021.73 1021.87 1021.97 1022.09 1022.21 1022.31 1022.41 1022.41 1022.49 1022.57 1022.57 1022.59 1022.59 1022.53 1022.45 1022.45 1022.53 1022.61 1022.61 1022.61 1022.59 1022.57 1022.55 1022.53 1022.51 1022.53 1022.53 1022.53 1022.51 1022.45 1022.43 1022.43 1022.43
1020.59 1020.75 1020.87 1020.99 1021.13 1021.29 1021.47 1021.63 1021.81 1021.95 1022.07 1022.19 1022.33 1022.39 1022.47 1022.55 1022.65 1022.71 1022.79 1022.83 1022.85 1022.85 1022.79 1022.75 1022.67 1022.57 1022.49 1022.51 1022.59 1022.71 1022.75 1022.73 1022.69 1022.59 1022.59 1022.57 1022.59 1022.57 1022.51 1022.47 1022.39 1022.29
1020.75 1020.89 1021.03 1021.19 1021.39 1021.53 1021.67 1021.79 1021.93 1022.07 1022.23 1022.35 1022.45 1022.61 1022.71 1022.77 1022.85 1022.89 1022.91 1022.95 1023.01 1023.03 1022.99 1022.91 1022.83 1022.77 1022.71 1022.63 1022.57 1022.61 1022.73 1022.83 1022.91 1022.83 1022.79 1022.77 1022.73 1022.73 1022.63 1022.53 1022.47 1022.43
1021.07 1021.19 1021.29 1021.43 1021.55 1021.71 1021.83 1021.95 1022.11 1022.27 1022.41 1022.59 1022.77 1022.83 1022.91 1022.99 1023.01 1023.01 1022.99 1022.99 1023.07 1023.15 1023.17 1023.11 1023.01 1022.91 1022.83 1022.77 1022.73 1022.75 1022.77 1022.83 1022.89 1022.91 1022.91 1022.83 1022.79 1022.73 1022.67 1022.63 1022.55 1022.41
1021.29 1021.41 1021.53 1021.63 1021.73 1021.81 1021.97 1022.19 1022.41 1022.55 1022.69 1022.87 1023.01 1023.07 1023.15 1023.19 1023.17 1023.17 1023.15 1023.15 1023.19 1023.29 1023.37 1023.33 1023.21 1023.07 1022.95 1022.87 1022.85 1022.85 1022.87 1022.93 1022.95 1022.99 1023.07 1023.09 1022.99 1022.89 1022.73 1022.65 1022.55 1022.45
1021.43 1021.57 1021.69 1021.83 1021.95 1022.11 1022.33 1022.53 1022.73 1022.91 1023.07 1023.13 1023.19 1023.23 1023.31 1023.33 1023.37 1023.39 1023.39 1023.41 1023.43 1023.49 1023.57 1023.57 1023.47 1023.35 1023.23 1023.15 1023.07 1023.03 1023.01 1022.99 1022.97 1023.01 1023.09 1023.15 1023.11 1023.05 1022.95 1022.87 1022.77 1022.55
1021.71 1021.81 1021.99 1022.17 1022.33 1022.51 1022.69 1022.91 1023.11 1023.23 1023.27 1023.29 1023.29 1023.41 1023.47 1023.53 1023.61 1023.67 1023.67 1023.63 1023.61 1023.69 1023.75 1023.73 1023.71 1023.65 1023.57 1023.49 1023.43 1023.39 1023.35 1023.27 1023.21 1023.17 1023.19 1023.15 1023.11 1022.97 1022.93 1022.89 1022.81 1022.63
1021.97 1022.15 1022.35 1022.61 1022.79 1022.97 1023.09 1023.23 1023.37 1023.43 1023.45 1023.47 1023.55 1023.65 1023.71 1023.81 1023.85 1023.83 1023.71 1023.69 1023.81 1023.89 1023.91 1023.95 1023.97 1023.95 1023.85 1023.77 1023.73 1023.71 1023.65 1023.59 1023.53 1023.49 1023.45 1023.43 1023.35 1023.21 1023.07 1023.03 1022.91 1022.73
1022.33 1022.55 1022.81 1023.03 1023.13 1023.27 1023.31 1023.41 1023.53 1023.61 1023.69 1023.75 1023.83 1023.87 1023.87 1023.85 1023.83 1023.81 1023.87 1023.97 1024.07 1024.11 1024.09 1024.07 1024.07 1023.99 1023.89 1023.81 1023.81 1023.81 1023.75 1023.69 1023.65 1023.63 1023.63 1023.61 1023.51 1023.37 1023.23 1023.07 1022.95 1022.77
1022.63 1022.87 1023.01 1023.19 1023.31 1023.51 1023.61 1023.73 1023.81 1023.85 1023.89 1023.91 1023.93 1023.91 1023.87 1023.91 1023.99 1024.07 1024.13 1024.21 1024.21 1024.17 1024.15 1024.13 1024.05 1023.93 1023.83 1023.81 1023.79 1023.75 1023.69 1023.59 1023.55 1023.51 1023.49 1023.43 1023.39 1023.27 1023.11 1022.99 1022.87 1022.65
1022.95 1023.19 1023.31 1023.49 1023.65 1023.79 1023.85 1023.91 1023.95 1023.99 1023.97 1023.95 1023.95 1023.99 1024.11 1024.21 1024.29 1024.33 1024.31 1024.29 1024.23 1024.23 1024.21 1024.15 1024.07 1023.93 1023.81 1023.73 1023.69 1023.65 1023.61 1023.53 1023.43 1023.37 1023.31 1023.21 1023.09 1022.95 1022.81 1022.73 1022.59 1022.47
1023.39 1023.51 1023.63 1023.73 1023.85 1023.93 1024.01 1024.07 1024.11 1024.09 1024.11 1024.13 1024.23 1024.31 1024.41 1024.47 1024.49 1024.47 1024.41 1024.33 1024.33 1024.31 1024.25 1024.15 1024.03 1023.93 1023.81 1023.71 1023.59 1023.51 1023.47 1023.41 1023.33 1023.25 1023.13 1023.01 1022.85 1022.69 1022.55 1022.43 1022.27 1022.07
1023.63 1023.77 1023.87 1023.95 1024.07 1024.17 1024.23 1024.27 1024.31 1024.37 1024.39 1024.43 1024.47 1024.49 1024.53 1024.55 1024.57 1024.51 1024.49 1024.47 1024.39 1024.33 1024.19 1024.09 1023.93 1023.83 1023.75 1023.63 1023.51 1023.43 1023.39 1023.31 1023.21 1023.09 1022.93 1022.81 1022.61 1022.43 1022.25 1022.09 1021.91 1021.67
1023.83 1023.97 1024.07 1024.19 1024.31 1024.43 1024.51 1024.59 1024.67 1024.65 1024.63 1024.61 1024.59 1024.55 1024.55 1024.61 1024.61 1024.59 1024.55 1024.49 1024.37 1024.25 1024.13 1023.99 1023.87 1023.77 1023.67 1023.55 1023.45 1023.39 1023.33 1023.25 1023.15 1022.95 1022.73 1022.53 1022.33 1022.13 1021.93 1021.73 1021.47 1021.25
1023.97 1024.13 1024.29 1024.45 1024.63 1024.77 1024.85 1024.91 1024.91 1024.87 1024.81 1024.71 1024.65 1024.63 1024.63 1024.63 1024.61 1024.53 1024.45 1024.35 1024.31 1024.23 1024.11 1024.01 1023.87 1023.75 1023.61 1023.49 1023.33 1023.21 1023.21 1023.09 1022.91 1022.79 1022.61 1022.33 1022.03 1021.77 1021.53 1021.31 1020.99 1020.69
1024.15 1024.33 1024.59 1024.81 1024.97 1025.05 1025.07 1025.09 1025.07 1025.03 1024.93 1024.79 1024.71 1024.71 1024.65 1024.61 1024.53 1024.49 1024.45 1024.39 1024.29 1024.17 1024.09 1023.99 1023.85 1023.73 1023.57 1023.41 1023.29 1023.21 1022.99 1022.87 1022.79 1022.63 1022.43 1022.15 1021.83 1021.39 1020.93 1020.69 1020.41 1020.03
1024.37 1024.57 1024.83 1025.03 1025.17 1025.21 1025.21 1025.19 1025.17 1025.07 1025.01 1024.95 1024.89 1024.81 1024.73 1024.65 1024.61 1024.51 1024.47 1024.43 1024.37 1024.27 1024.11 1023.99 1023.85 1023.65 1023.43 1023.29 1023.07 1022.87 1022.77 1022.61 1022.49 1022.31 1022.13 1021.91 1021.65 1021.23 1020.59 1019.93 1019.53 1019.31
1024.59 1024.79 1024.95 1025.15 1025.23 1025.27 1025.25 1025.21 1025.15 1025.13 1025.15 1025.19 1025.09 1024.89 1024.79 1024.77 1024.65 1024.57 1024.49 1024.39 1024.29 1024.25 1024.19 1024.09 1023.93 1023.69 1023.43 1023.17 1022.91 1022.65 1022.49 1022.37 1022.17 1021.97 1021.65 1021.37 1021.13 1020.81 1020.25 1019.69 1019.13 1018.67
1024.79 1024.91 1025.05 1025.15 1025.25 1025.27 1025.27 1025.29 1025.39 1025.47 1025.41 1025.29 1025.07 1024.95 1024.85 1024.69 1024.63 1024.55 1024.41 1024.37 1024.31 1024.25 1024.23 1024.11 1023.93 1023.61 1023.37 1023.07 1022.79 1022.51 1022.23 1022.11 1021.89 1021.63 1021.41 1020.99 1020.71 1020.39 1019.97 1019.41 1018.91 1018.49
1024.93 1025.07 1025.15 1025.23 1025.29 1025.39 1025.47 1025.53 1025.59 1025.59 1025.53 1025.39 1025.15 1024.93 1024.79 1024.71 1024.65 1024.59 1024.49 1024.37 1024.31 1024.23 1024.11 1024.01 1023.81 1023.45 1023.15 1022.89 1022.65 1022.35 1022.03 1021.85 1021.63 1021.39 1021.13 1020.77 1020.43 1020.09 1019.63 1019.11 1018.71 1018.47
1025.05 1025.15 1025.25 1025.35 1025.45 1025.57 1025.65 1025.67 1025.67 1025.67 1025.57 1025.43 1025.25 1025.09 1024.95 1024.81 1024.71 1024.53 1024.39 1024.31 1024.15 1024.03 1023.93 1023.71 1023.57 1023.33 1023.01 1022.77 1022.59 1022.31 1021.93 1021.61 1021.41 1021.25 1020.93 1020.51 1020.07 1019.69 1019.31 1018.85 1018.53 1018.27
1025.05 1025.23 1025.39 1025.57 1025.67 1025.73 1025.77 1025.79 1025.83 1025.85 1025.75 1025.55 1025.37 1025.21 1025.07 1024.93 1024.75 1024.63 1024.35 1024.15 1024.03 1023.91 1023.73 1023.45 1023.31 1023.31 1023.05 1022.71 1022.45 1022.21 1021.83 1021.49 1021.23 1021.03 1020.69 1020.23 1019.69 1019.19 1018.75 1018.45 1018.25 1018.03
1025.17 1025.43 1025.61 1025.77 1025.85 1025.91 1025.97 1026.01 1025.95 1025.85 1025.73 1025.49 1025.31 1025.17 1025.03 1024.85 1024.65 1024.49 1024.33 1024.17 1023.95 1023.89 1023.85 1023.53 1023.19 1023.17 1023.07 1022.71 1022.31 1021.97 1021.71 1021.47 1021.09 1020.75 1020.43 1020.03 1019.53 1018.83 1018.29 1017.99 1017.77 1017.59
1025.43 1025.69 1025.87 1025.97 1026.05 1026.07 1026.11 1026.13 1026.03 1025.85 1025.61 1025.39 1025.37 1025.27 1025.11 1024.89 1024.63 1024.43 1024.37 1024.35 1024.15 1023.85 1023.85 1023.65 1023.03 1022.69 1022.79 1022.59 1022.21 1021.85 1021.73 1021.55 1021.17 1020.77 1020.25 1019.85 1019.21 1018.61 1018.07 1017.71 1017.41 1017.09
1025.71 1025.93 1026.07 1026.11 1026.15 1026.19 1026.21 1026.13 1025.93 1025.75 1025.61 1025.57 1025.55 1025.41 1025.23 1024.97 1024.75 1024.59 1024.39 1024.31 1024.15 1023.85 1023.49 1023.37 1022.93 1022.41 1022.35 1022.39 1022.13 1021.85 1021.67 1021.51 1021.19 1020.81 1020.37 1019.81 1019.25 1018.41 1017.87 1017.47 1016.93 1016.71
1025.91 1026.11 1026.19 1026.21 1026.27 1026.27 1026.27 1026.17 1025.99 1025.89 1025.85 1025.77 1025.63 1025.37 1025.19 1025.07 1024.87 1024.61 1024.23 1023.89 1023.81 1023.67 1023.39 1023.19 1022.93 1022.43 1022.23 1022.27 1022.15 1021.89 1021.73 1021.55 1021.29 1020.97 1020.55 1019.99 1019.41 1018.75 1017.87 1017.11 1016.81 1016.17
Wind_Speed
4 3 3 2 2 1 3 4 5 4 4 5 5 5 6 4 5 5 5 5 4 2 2 1 1 2 2 3 3 4 4 4 4 4 4 5 5 6 7 7 6 7
3 4 4 3 4 6 5 5 5 4 4 4 4 4 4 5 5 5 5 5 6 6 5 5 3 2 2 2 2 4 5 5 5 3 4 4 5 5 6 6 6 6
5 5 5 5 5 5 5 4 4 4 4 4 4 5 4 4 4 4 4 4 4 4 4 4 4 4 4 3 2 2 2 4 5 5 6 6 6 6 6 7 7 8
5 5 5 5 5 5 5 5 5 5 5 6 5 4 3 4 4 4 4 4 4 4 4 4 4 4 4 4 4 4 3 3 3 5 5 6 5 5 7 6 7 7
5 5 5 5 4 5 5 6 6 5 5 5 5 4 5 4 4 4 4 4 4 4 5 5 4 4 4 4 4 4 3 3 3 4 5 6 6 6 6 4 5 7
6 6 6 6 5 6 7 6 5 5 5 4 4 5 4 4 4 4 5 4 4 4 4 4 5 5 6 5 5 4 4 4 4 3 4 6 7 6 6 6 8 9
7 6 7 7 7 7 7 6 5 5 4 3 4 5 4 4 5 4 4 4 4 4 4 4 4 5 5 5 5 5 6 4 4 5 5 5 6 7 5 6 6 8
7 6 7 7 7 6 6 6 5 5 4 5 5 4 4 4 4 3 4 5 5 4 4 4 4 4 4 4 4 4 5 4 4 5 5 6 5 8 7 6 6 8
7 7 7 6 7 6 7 6 5 5 4 4 4 4 4 4 4 5 5 4 4 4 4 3 3 3 3 3 3 4 4 4 4 4 5 6 7 7 8 7 8 7
8 7 7 7 7 6 6 5 4 4 4 4 4 4 6 5 5 5 4 4 4 4 4 4 4 4 4 3 3 3 4 5 4 4 4 5 6 7 8 7 8 9
7 6 7 6 6 5 5 5 5 4 4 5 5 6 5 5 5 4 4 4 5 4 4 4 4 5 5 4 4 4 4 5 5 5 5 6 6 7 8 8 8 9
6 6 6 6 6 6 5 5 5 5 5 5 5 4 4 4 4 4 4 4 4 4 4 4 4 4 5 5 5 5 4 5 5 5 6 6 7 7 8 7 8 9
7 6 6 5 6 5 5 5 5 5 5 4 4 4 4 4 4 4 4 4 4 4 4 4 5 4 4 5 5 4 4 5 6 6 7 7 7 8 8 8 8 9
6 5 5 5 5 5 5 4 4 4 4 4 4 4 4 4 4 4 4 3 4 4 4 4 4 4 5 4 4 4 5 6 5 7 8 8 8 8 8 9 10 10
5 5 5 5 5 4 4 4 4 4 4 3 4 4 4 3 3 3 4 4 4 4 4 4 5 5 4 5 6 7 5 6 7 7 8 9 10 10 9 9 10 10
5 5 5 4 4 4 4 4 3 3 3 4 4 4 3 3 4 4 4 4 5 5 5 5 5 4 6 11 10 7 7 7 7 7 8 9 10 11 11 10 11 11
5 5 4 4 4 4 3 3 3 3 4 4 4 4 4 4 4 4 4 4 4 5 5 6 6 7 12 12 13 14 9 8 7 8 7 8 9 10 13 14 12 11
4 4 4 4 4 4 4 4 4 4 4 4 4 4 4 3 4 4 4 4 4 4 4 5 6 9 13 14 15 15 14 10 9 9 9 9 9 11 12 13 14 14
4 4 4 4 4 4 4 4 4 4 4 4 5 4 3 4 5 5 5 5 4 5 5 6 6 10 13 14 15 16 17 14 9 9 10 11 12 12 13 14 13 13
4 4 4 4 4 4 4 4 3 4 4 3 4 4 4 5 5 5 5 5 5 5 6 5 6 9 13 14 15 17 18 16 10 11 11 12 13 13 13 14 14 14
4 4 4 4 4 4 4 4 4 4 4 4 4 4 4 5 6 6 5 5 6 6 6 7 6 11 14 16 16 17 19 17 11 10 11 12 13 13 14 15 15 14
4 4 4 4 4 4 4 4 4 3 4 4 3 3 3 3 4 4 5 7 6 7 7 9 8 10 14 15 17 17 19 12 10 11 12 13 14 14 14 13 13 13
4 4 3 3 3 3 3 3 4 4 4 3 4 4 5 5 5 5 5 6 8 7 7 9 9 8 11 15 16 18 14 10 11 11 11 12 14 15 15 14 13 12
4 3 2 2 2 2 3 3 3 3 3 4 4 6 6 6 6 6 5 5 7 8 6 8 11 11 12 13 16 18 15 11 11 11 12 13 14 14 14 13 14 20
3 2 2 1 2 2 3 4 4 4 4 4 4 4 5 5 5 6 6 5 5 7 10 9 10 12 14 13 17 18 15 10 10 10 12 13 14 16 15 14 15 15
2 2 2 2 2 3 3 4 4 4 4 4 4 4 4 4 4 5 8 8 5 6 8 8 10 11 11 14 16 18 19 13 10 11 12 14 15 15 16 16 15 15
Wind_Direction
98 116 121 154 186 152 78 60 42 46 29 28 26 15 25 12 25 19 13 9 7 351 311 248 240 287 318 334 325 305 280 270 271 265 269 277 278 276 273 268 258 251
113 98 94 96 84 64 60 64 55 55 37 32 35 25 19 29 13 19 8 6 3 359 357 353 336 293 259 243 305 330 336 335 326 326 313 298 291 298 294 296 288 280
89 84 74 77 84 77 75 70 71 58 58 43 36 37 27 31 21 3 3 8 351 344 345 347 352 355 353 340 339 1 344 340 334 336 333 321 321 313 300 295 292 293
83 92 95 79 73 75 67 65 49 45 43 41 34 27 32 21 25 12 12 11 12 354 346 351 351 356 357 355 2 4 356 343 332 335 322 313 302 294 292 294 291 287
97 83 78 80 80 79 71 68 57 51 49 43 35 24 34 23 15 17 14 10 15 3 357 351 355 352 356 353 359 355 354 348 346 351 332 321 320 318 305 305 296 292
74 78 74 73 66 69 68 64 56 54 46 36 21 41 29 23 24 23 16 21 9 11 359 358 359 352 359 360 360 355 342 331 313 323 311 304 303 303 305 307 304 296
73 68 69 68 65 64 68 63 59 54 38 16 44 43 33 25 27 19 18 19 16 4 2 356 359 354 359 3 360 349 347 342 338 337 318 306 304 302 299 296 292 290
75 68 69 69 70 65 67 64 60 49 36 39 47 20 42 37 25 18 20 19 10 357 356 356 357 359 351 12 354 347 335 339 336 331 322 314 315 303 307 303 299 295
76 75 77 75 75 66 64 56 52 47 37 54 41 31 25 39 25 27 16 8 1 347 349 342 337 332 335 354 336 327 315 315 316 319 311 306 305 300 301 303 296 288
73 72 73 71 70 65 67 59 57 52 47 51 39 38 30 13 25 15 14 4 360 351 347 340 336 328 326 318 295 290 293 290 291 286 278 277 280 285 288 288 285 288
73 68 72 69 72 68 65 60 51 50 44 46 35 31 17 23 9 10 12 6 358 344 337 332 322 320 320 313 302 283 274 280 283 280 274 271 269 271 273 274 278 273
72 69 68 68 64 58 54 51 47 42 38 28 39 33 20 15 16 357 10 352 345 325 324 318 321 323 317 308 305 302 290 282 280 279 277 274 275 272 271 268 268 270
70 67 65 64 61 57 49 44 42 40 38 30 17 42 37 19 2 9 345 351 322 327 322 318 318 321 320 313 309 309 308 306 302 296 288 284 275 272 270 268 264 267
73 72 67 61 59 52 45 41 38 32 26 14 32 30 22 13 359 349 325 338 322 327 318 320 320 317 313 305 303 307 312 304 298 298 296 290 285 280 275 271 267 265
74 68 64 59 55 52 43 36 33 20 13 17 24 23 2 342 340 341 340 340 333 330 324 321 320 313 305 310 316 312 306 301 298 292 289 290 289 284 277 274 272 265
78 76 73 66 59 54 48 31 28 12 15 20 10 1 348 339 351 345 350 341 338 332 332 328 320 310 306 305 304 297 299 290 287 283 282 283 287 289 286 273 267 270
76 78 83 75 67 54 39 29 15 12 20 16 4 353 349 340 346 348 343 334 331 329 327 325 319 315 310 308 306 304 301 296 289 286 277 275 275 279 285 288 282 271
79 81 80 73 65 45 34 20 22 18 16 5 354 353 343 347 353 335 329 327 325 324 316 305 302 297 301 304 305 305 305 302 298 294 291 285 281 281 283 286 287 288
80 79 74 66 49 38 28 22 25 12 4 355 349 326 335 356 339 336 330 326 321 314 304 296 290 291 295 298 301 301 302 302 295 291 292 290 290 287 285 286 288 291
78 73 64 50 39 35 26 19 23 10 346 325 323 340 354 341 335 328 319 318 312 302 296 290 286 290 296 300 302 303 303 303 295 295 291 289 288 288 287 288 288 291
76 66 54 39 28 27 21 17 11 353 349 331 331 330 334 329 323 322 313 306 305 299 294 292 287 295 302 304 304 304 304 304 299 296 293 291 289 286 285 285 288 289
72 60 45 36 18 15 15 4 356 338 326 310 315 310 300 301 297 289 300 305 300 303 308 304 303 306 304 305 307 307 308 306 303 300 297 295 293 292 288 288 288 287
65 59 45 31 15 11 5 349 340 321 308 302 331 329 325 319 309 305 304 306 307 307 306 301 301 303 305 307 309 312 314 310 307 304 299 297 296 296 295 295 294 290
66 61 54 15 20 354 335 316 301 291 301 331 338 322 320 313 310 312 307 302 302 301 299 301 303 307 313 315 315 316 318 314 310 308 304 304 301 298 300 299 297 296
79 62 37 7 1 320 320 313 313 313 319 326 311 299 296 301 309 309 306 300 286 295 306 309 306 311 320 323 319 318 321 317 314 311 310 309 309 306 305 303 303 300
52 67 13 358 327 318 321 309 304 321 314 308 302 294 303 308 300 308 314 316 319 316 317 315 312 310 314 319 321 321 326 326 318 316 313 311 309 306 307 306 305 304